RH
34 39 40 38 38 40 40 33 37 33 38 40 40 34 32 39 47 52 52 53 51 47 40 34 49 72 80 75 79 82 84 89 89 90 94 91 89 79 79 82 81 80 88 86
37 37 34 38 40 41 41 37 35 35 33 41 41 37 29 37 44 47 50 49 50 47 46 33 37 60 77 78 76 81 88 92 92 93 91 95 91 90 82 84 84 83 88 88
36 34 35 37 41 44 41 40 38 35 38 44 42 38 31 34 41 47 49 48 46 45 47 39 34 41 56 66 75 82 85 92 93 92 88 92 88 91 86 85 85 89 92 90
30 31 34 41 40 43 44 39 37 35 48 54 44 49 33 33 37 45 47 48 47 45 46 41 41 37 35 50 57 59 69 77 82 87 88 91 88 86 85 85 90 92 91 91
33 28 32 33 40 43 42 41 40 47 54 54 49 51 34 36 37 38 43 44 45 43 44 42 35 42 37 38 39 42 50 55 61 67 77 80 83 81 79 77 80 86 84 81
29 30 30 34 35 41 48 46 48 55 60 61 49 51 39 32 37 38 42 41 39 38 41 45 37 41 44 42 40 42 42 44 47 50 51 56 61 67 71 73 75 75 76 78
22 25 29 32 39 44 43 53 61 64 67 60 50 61 42 28 30 35 41 41 34 33 36 40 39 38 43 41 43 41 41 43 45 48 47 46 47 51 52 56 61 61 61 60
17 15 17 28 34 43 45 48 63 64 64 57 62 65 44 28 29 33 40 42 36 30 35 39 40 38 41 46 41 37 39 40 39 43 42 43 46 46 48 53 59 60 61 60
38 26 21 19 22 36 44 52 48 56 66 70 57 54 45 29 26 31 33 43 38 35 37 37 41 38 40 43 48 44 41 38 39 43 42 41 41 43 45 49 53 58 61 61
46 43 35 34 33 32 37 43 51 63 69 72 61 58 50 36 33 34 36 42 42 39 39 40 39 38 42 45 47 52 55 48 44 47 50 51 51 49 48 48 53 56 60 60
56 55 42 39 36 38 43 46 49 53 61 61 62 58 48 38 32 39 43 43 42 39 38 38 36 38 39 43 42 51 54 59 61 61 60 58 57 56 55 56 57 57 55 57
61 71 62 40 38 42 44 45 49 55 56 63 59 50 44 39 36 42 40 43 43 40 39 39 37 40 42 42 41 37 43 51 55 63 66 69 65 61 59 57 58 60 63 70
65 84 70 49 37 41 46 48 52 56 56 52 65 54 44 43 43 45 47 45 43 40 37 35 38 40 40 43 48 41 37 38 44 55 67 72 75 69 64 59 63 67 69 74
55 68 76 75 64 65 62 48 50 54 63 52 48 53 50 46 43 42 46 49 47 45 40 37 42 40 38 42 49 41 34 31 34 36 40 45 47 52 60 66 62 61 62 72
65 63 69 73 70 73 64 59 51 53 46 56 50 53 50 47 42 45 50 53 45 52 45 47 44 42 40 38 44 45 41 35 32 31 30 26 29 31 35 40 50 62 76 80
69 80 77 86 72 77 67 49 54 50 52 52 54 54 50 46 46 47 53 54 50 49 46 48 46 45 42 39 41 43 45 44 39 34 31 33 36 39 43 49 62 68 67 68
87 85 83 80 78 94 85 37 39 49 53 55 61 57 53 47 49 52 48 43 42 43 52 46 43 43 41 39 39 43 46 47 46 45 42 41 45 53 60 60 62 65 67 64
58 97 91 95 86 96 58 53 40 47 48 51 53 54 55 51 52 50 49 43 37 40 46 49 43 40 40 42 42 44 44 46 48 50 50 50 56 62 62 61 59 60 60 66
43 71 85 90 97 86 83 67 54 54 50 51 51 52 54 55 55 48 51 47 41 37 43 46 43 40 42 42 41 43 47 48 45 47 52 58 63 61 58 60 62 61 62 60
49 64 87 93 94 87 75 80 72 63 64 52 54 51 52 57 58 52 50 48 45 42 42 44 45 45 43 41 41 43 43 40 41 43 48 55 58 56 58 60 59 59 59 54
91 77 83 88 90 83 66 75 83 79 67 58 58 53 57 56 57 56 54 52 49 50 45 45 45 45 42 43 45 43 42 43 46 50 54 57 59 59 59 62 63 60 59 66
73 95 98 97 98 89 69 70 95 81 70 62 62 64 69 66 65 65 60 57 57 55 55 54 50 50 51 53 52 53 55 54 56 57 58 60 61 62 64 62 62 65 68 72
59 77 80 89 92 67 63 69 71 77 80 75 67 75 71 71 73 72 66 64 63 62 61 61 60 64 66 65 64 63 61 63 63 64 66 65 66 68 68 69 71 75 78 81
50 53 60 71 58 64 60 67 70 66 66 75 75 76 74 76 74 73 71 73 70 67 66 70 70 69 71 72 70 71 71 70 71 73 74 74 75 76 76 78 82 86 90 92
49 46 54 64 59 67 63 59 61 63 62 70 81 78 83 85 82 82 80 77 75 77 78 80 82 73 77 77 77 78 78 76 75 77 79 79 79 78 80 84 89 92 94 97
47 43 63 65 74 65 62 61 63 64 68 67 75 80 82 90 87 87 87 81 80 88 83 85 92 83 83 84 84 84 82 80 80 80 79 78 77 79 82 86 91 95 97 97